User: anonymous
Location: Durham
(54.7770°N, 1.5720°W)
Time: 04:37:59
(UTC+01:00)
Language:

ISS - Orbit

View from above orbital plane
View from above orbital plane
View from above satellite
View from above satellite

Ground track
Ground track

The orbit data is extracted from the following two-line orbital elements,

1 25544U 98067A   14260.92872867  .00018561  00000-0  32787-3 0  1018
2 25544 051.6480 359.9210 0002427 109.6963 000.4677 15.50392805905718
Epoch (UTC): 17 September 2014 22:17:22
Eccentricity: 0.0002427
inclination: 51.6480°
perigee height: 414 km
apogee height: 417 km
right ascension of ascending node: 359.9210°
argument of perigee: 109.6963°
revolutions per day: 15.50392805
mean anomaly at epoch: 0.4677°
orbit number at epoch: 90571

The dashed part of the orbit path shows where the satellite is in the earth's shadow,  

DLR